This is the latest recevied weather packets stored in our database for station/object K4KMJ. If no packets are shown the sender has not sent any weather packets the latest 1 day(s).
| Time | Temp. | Humidity | Pressure | Rain* | Wind** | Luminosity | Snow |
|---|---|---|---|---|---|---|---|
| 1778037429 | 19.44° C | 87% | 1018.6 hPa | 0 mm | - | 0 W/m² | - |
| 1778036825 | 19.44° C | 86% | 1018.4 hPa | 0 mm | - | 0 W/m² | - |
| 1778036522 | 18.89° C | 86% | 1018.5 hPa | 0 mm | - | 0 W/m² | - |
| 1778036218 | 18.89° C | 85% | 1018.4 hPa | 0 mm | - | 0 W/m² | - |
| 1778035612 | 18.89° C | 84% | 1018.4 hPa | 0 mm | - | 0 W/m² | - |
| 1778035308 | 19.44° C | 83% | 1018.5 hPa | 0 mm | - | 0 W/m² | - |
| 1778035004 | 19.44° C | 82% | 1018.4 hPa | 0 mm | - | 0 W/m² | - |
| 1778034702 | 19.44° C | 82% | 1018.6 hPa | 0 mm | - | 0 W/m² | - |
| 1778034399 | 19.44° C | 81% | 1018.5 hPa | 0 mm | - | 0 W/m² | - |
| 1778034096 | 20° C | 80% | 1018.4 hPa | 0 mm | - | 0 W/m² | - |
| 1778033794 | 20° C | 80% | 1018.5 hPa | 0 mm | - | 0 W/m² | - |
| 1778033491 | 20° C | 79% | 1018.2 hPa | 0 mm | - | 0 W/m² | - |
| 1778033188 | 20.56° C | 79% | 1018.5 hPa | 0 mm | - | 0 W/m² | - |
| 1778032583 | 20.56° C | 78% | 1018.4 hPa | 0 mm | - | 0 W/m² | - |
| 1778032279 | 20.56° C | 77% | 1018.2 hPa | 0 mm | - | 0 W/m² | - |
| 1778031972 | 20.56° C | 76% | 1018.4 hPa | 0 mm | - | 0 W/m² | - |
| 1778031667 | 20.56° C | 76% | 1018.4 hPa | 0 mm | - | 0 W/m² | - |
| 1778031366 | 20.56° C | 75% | 1018.3 hPa | 0 mm | - | 0 W/m² | - |
| 1778030758 | 21.11° C | 73% | 1018.1 hPa | 0 mm | - | 0 W/m² | - |
| 1778030455 | 21.67° C | 72% | 1018.2 hPa | 0 mm | - | 0 W/m² | - |
| 1778030153 | 21.67° C | 72% | 1018.1 hPa | 0 mm | - | 0 W/m² | - |
| 1778029848 | 21.67° C | 71% | 1018.1 hPa | 0 mm | - | 0 W/m² | - |
| 1778029239 | 21.67° C | 71% | 1017.9 hPa | 0 mm | - | 0 W/m² | - |
| 1778028936 | 22.22° C | 70% | 1017.8 hPa | 0 mm | - | 0 W/m² | - |
| 1778028026 | 22.22° C | 69% | 1017.9 hPa | 0 mm | - | 0 W/m² | - |
* Rain latest hour (hover to see other rain measurements)
** Current wind speed in m/s (hover to see current wind gust speed)